Погода в Слободе

Россия / Свердловская область     57°01′31″N   59°33′25″E
темп.,
°C
ветер,
м/с
пор.,
м/с
влажн.,
%
обл.,
%
осадки,
мм/ч
давл.,
гПа
погр.,
м
16 января, вс
вс1623:00−12вюв3795100 1.0 981271
02:00−9вюв1596100 1.4 980161
05:00−5ююз51388100 1.9 981805
08:00−11ююз51386100 0.1 985728
11:00−12ююз4118983 0.1 988506
14:00−11юз378498 0.0 988496
17:00−17юз119892 0.0 9909
20:00−14зюз2896100 0.1 990278
17 января, пн
пн1723:00−15з4993100 0.2 991518
02:00−15з41192100 0.1 993589
05:00−15з51191100 0.2 996722
08:00−14з51291100 0.1 998751
11:00−13зюз51291100 0.2 1000785
14:00−11зюз61389100 0.1 1002727
17:00−13юз5168976 0.1 1005591
20:00−12юз61688100 0.0 1005643
18 января, вт
вт1823:00−11юз61688100 0.1 1006717
02:00−11юз6178678 0.0 1007653
05:00−11юз61688100 0.1 1009638
08:00−11юз61788100 0.0 1010623
11:00−10юз61788100 0.0 1010639
14:00−8юз61687100 0.0 1011664
17:00−8юз51489100 0.1 1012731
20:00−8юз5149099 0.1 1014654
19 января, ср
ср1923:00−8юз51490100 0.2 1014589
02:00−7юз51390100 0.0 1015586
05:00−7юз51490100 0.1 1016578
08:00−7юз51392100 0.1 1017540
11:00−5зюз51490100 0.1 1019608
14:00−4зюз51390100 0.0 1020659
17:00−4зюз41291100 0.1 1021774
20:00−5юз41292100 0.1 1023488
20 января, чт
чт2023:00−7юз41194100 0.1 1024357
02:00−8зюз31194100 0.1 1025356
05:00−9юз399592 0.1 1026271
08:00−13юз119887 0.0 102815
11:00−11юз139599 0.0 102875
14:00−6юз138999 0.0 1027211
17:00−11ююв009852 0.0 102810
20:00−15юв0010085 0.0 10299